STARLINK-3358, 51109

Orbit data source: Space-Track

STARLINK-3358, 51109 is a payload satellite owned by SpaceX/Seattle (US) in LEO that was launched on Wed, 19 Jan 2022 UTC via an FALCON 9 launch vehicle from the Air Force Eastern Test Range (AFETR). Payload-class satellites include a variety of spacecraft equipped with specific instruments for various scientific and technological missions. These include communications satellites like Starlink; space stations such as the ISS; scientific satellites like the Hubble; Earth observation satellites from companies like Planet Labs, Umbra, and HawkEye 360; GPS; miniature CubeSats for education and research; and military/defense satellites.

Loading next visibility...
Identifier
51109, 2022-005F
Orbit
LEO
Country
Flag of USUS
Related business
Manufacturer
SpaceX/Seattle
Mission
Operational Commercial Communications
Bus & Motor
STARLINK, Unknown motor
Mass
297 kg wet, ~275 kg dry
Launch date (UTC)
2022-01-19 (4 years ago)
Launch vehicle
FALCON 9
Launch site
Air Force Eastern Test Range (AFETR)
Object type
Payload
Rocket body
Debris
Shape & HBR
Box + 1 Pan, 10.1 m
Radar Cross Section
13.562 m², Large (>1 m²)

Expand to show TLE details & history
Last TLE update: 9 hours ago

TLE from 9 hours ago
0 STARLINK-3358
1 51109U 22005F   26094.23090911  .00004064  00000-0  27329-3 0  9991
2 51109  53.2167 174.4135 0001600 103.1006 257.0165 15.08836848232504
Epoch: 2026-04-04T05:32Z
TLE epoch observation values (Epoch: 2026-04-04T05:32:30.547Z)
Latitude
0.00001°
Longitude
-101.26743°
Altitude
540.899 km
Speed
7.593 km/s
True Right ascension
11h 37m 39s
True Declination
0° 00' 00"
Sunlit
Object was in full shadow at epoch
Visualization orbit readout
Latitude
Unknown
Longitude
Unknown
Altitude
Unknown
Speed
Unknown
Apparent Right ascension
Unknown
Apparent Declination
Unknown
Sunlit
N/A
Visualization observer readout
Local Sidereal Time
20:31:36
Azimuth
Unknown
Elevation
Unknown
Doppler factor
Unknown
Orbital elements
Apogee altitude
541.105 km
Perigee altitude
538.891 km
Semi-major axis
6,918.135 km
Eccentricity
0.00016
Inclination
53.2167°
RAAN
174.4135°
Arg. of periapsis
103.1006°
True anomaly
256.99863°
Mean anomaly
257.0165°
Eccentric anomaly
257.00757°
Mean motion
3.7719 °/min
Orbital period
95.44 mins
BSTAR
0.00027329
Loading maneuver chart data...
Computing Atmospheric mass density...
Loading historical data...
Loading historical data...
Loading historical data...
Loading historical data...
Loading historical data...
Loading historical data...
Loading historical data...

Documentation

Showing up to 5 results
|